| time (UTC) | temp F | wind direction | speed MPH | gust MPH | rain 1hr in | rain 24hr in | rain mn in | humidity % | barometer mb |
| 20260508144504 | 51 | 235 | 0.0 | 0.0 | 0.00 | 0.03 | 0.03 | 87 | 1014.2 |
| 20260508143012 | 49 | 235 | 0.0 | 0.0 | 0.00 | 0.03 | 0.03 | 91 | 1014.2 |
| 20260508141503 | 47 | 236 | 0.0 | 0.0 | 0.00 | 0.03 | 0.03 | 93 | 1014.3 |
| 20260508140003 | 46 | 236 | 0.0 | 0.0 | 0.00 | 0.04 | 0.03 | 94 | 1014.4 |
| 20260508134502 | 44 | 236 | 0.0 | 0.0 | 0.00 | 0.04 | 0.03 | 94 | 1014.3 |
| 20260508133121 | 42 | 235 | 0.0 | 0.0 | 0.00 | 0.04 | 0.03 | 94 | 1014.3 |
| 20260508131600 | 41 | 235 | 0.0 | 0.0 | 0.00 | 0.04 | 0.03 | 94 | 1014.2 |
| 20260508130059 | 40 | 235 | 0.0 | 0.0 | 0.00 | 0.04 | 0.03 | 94 | 1014.1 |
| 20260508124545 | 40 | 235 | 0.0 | 0.0 | 0.00 | 0.04 | 0.03 | 94 | 1014.0 |
| 20260508123054 | 39 | 232 | 0.0 | 0.0 | 0.00 | 0.04 | 0.03 | 94 | 1013.8 |
| 20260508121551 | 39 | 232 | 0.0 | 0.0 | 0.00 | 0.04 | 0.03 | 93 | 1013.7 |
| 20260508120040 | 39 | 232 | 0.0 | 0.0 | 0.00 | 0.04 | 0.03 | 93 | 1013.5 |
| 20260508114538 | 39 | 232 | 0.0 | 0.0 | 0.00 | 0.04 | 0.03 | 93 | 1013.3 |
| 20260508113039 | 39 | 232 | 0.0 | 0.0 | 0.00 | 0.04 | 0.03 | 93 | 1013.3 |
| 20260508111535 | 39 | 232 | 0.0 | 0.0 | 0.00 | 0.04 | 0.03 | 93 | 1013.2 |
| 20260508110038 | 40 | 232 | 0.0 | 1.0 | 0.00 | 0.04 | 0.03 | 93 | 1013.1 |
| 20260508104523 | 41 | 232 | 0.0 | 0.0 | 0.00 | 0.04 | 0.03 | 93 | 1013.1 |
| 20260508103021 | 41 | 232 | 0.0 | 1.0 | 0.00 | 0.04 | 0.03 | 93 | 1013.0 |
| 20260508101520 | 41 | 232 | 0.0 | 0.0 | 0.00 | 0.04 | 0.03 | 93 | 1012.9 |
| 20260508100019 | 41 | 232 | 0.0 | 1.0 | 0.00 | 0.06 | 0.03 | 93 | 1012.8 |
| 20260508094516 | 42 | 232 | 0.0 | 0.0 | 0.01 | 0.06 | 0.03 | 92 | 1012.7 |
| 20260508093021 | 42 | 232 | 0.0 | 0.0 | 0.01 | 0.06 | 0.03 | 92 | 1012.6 |
| 20260508091600 | 42 | 232 | 0.0 | 0.0 | 0.01 | 0.06 | 0.03 | 92 | 1012.6 |
| 20260508090056 | 43 | 232 | 0.0 | 0.0 | 0.01 | 0.06 | 0.03 | 92 | 1012.4 |
| 20260508084534 | 43 | 232 | 0.0 | 0.0 | 0.00 | 0.05 | 0.02 | 92 | 1012.4 |
| 20260508083032 | 44 | 232 | 0.0 | 1.0 | 0.00 | 0.05 | 0.02 | 91 | 1012.4 |
| 20260508081523 | 44 | 232 | 0.0 | 0.0 | 0.00 | 0.05 | 0.02 | 91 | 1012.4 |
| 20260508080017 | 44 | 233 | 0.0 | 0.0 | 0.00 | 0.05 | 0.02 | 90 | 1012.4 |
| 20260508074513 | 46 | 233 | 0.0 | 0.0 | 0.00 | 0.05 | 0.02 | 90 | 1012.2 |
| 20260508073012 | 46 | 233 | 0.0 | 0.0 | 0.00 | 0.05 | 0.02 | 90 | 1012.2 |
| 20260508071514 | 47 | 233 | 0.0 | 0.0 | 0.00 | 0.05 | 0.02 | 89 | 1012.2 |
| 20260508070008 | 47 | 233 | 0.0 | 0.0 | 0.00 | 0.05 | 0.02 | 89 | 1012.3 |
| 20260508064510 | 48 | 233 | 0.0 | 0.0 | 0.00 | 0.05 | 0.02 | 89 | 1012.3 |
| 20260508063006 | 48 | 234 | 0.0 | 0.0 | 0.00 | 0.05 | 0.02 | 89 | 1012.1 |
| 20260508061553 | 48 | 239 | 0.0 | 0.0 | 0.00 | 0.05 | 0.02 | 90 | 1012.1 |
| 20260508060056 | 48 | 232 | 0.0 | 0.0 | 0.00 | 0.05 | 0.02 | 90 | 1012.0 |
| 20260508054553 | 49 | 235 | 0.0 | 0.0 | 0.00 | 0.05 | 0.02 | 89 | 1011.9 |
| 20260508053054 | 49 | 236 | 0.0 | 0.0 | 0.00 | 0.05 | 0.02 | 87 | 1011.9 |
| 20260508051546 | 50 | 236 | 0.0 | 0.0 | 0.00 | 0.05 | 0.02 | 86 | 1011.8 |
| 20260508050041 | 51 | 236 | 0.0 | 0.0 | 0.00 | 0.05 | 0.02 | 85 | 1011.7 |
| 20260508044558 | 51 | 236 | 0.0 | 0.0 | 0.00 | 0.05 | 0.02 | 85 | 1011.8 |
| 20260508043043 | 52 | 236 | 0.0 | 0.0 | 0.00 | 0.05 | 0.02 | 84 | 1011.9 |
| 20260508041522 | 52 | 227 | 0.0 | 0.0 | 0.00 | 0.05 | 0.02 | 82 | 1011.8 |
| 20260508040020 | 52 | 227 | 0.0 | 3.0 | 0.00 | 0.05 | 0.02 | 81 | 1011.4 |
| 20260508034524 | 52 | 211 | 0.0 | 0.0 | 0.00 | 0.05 | 0.02 | 82 | 1011.5 |
| 20260508033020 | 52 | 206 | 0.0 | 3.0 | 0.00 | 0.05 | 0.02 | 81 | 1011.4 |
| 20260508031519 | 53 | 182 | 0.0 | 0.0 | 0.00 | 0.05 | 0.02 | 80 | 1011.5 |
| 20260508030016 | 53 | 90 | 0.0 | 0.0 | 0.00 | 0.05 | 0.02 | 79 | 1011.3 |
| 20260508024512 | 53 | 90 | 0.0 | 0.0 | 0.00 | 0.05 | 0.02 | 80 | 1010.9 |
| 20260508023014 | 53 | 89 | 0.0 | 0.0 | 0.00 | 0.05 | 0.02 | 77 | 1010.5 |
| 20260508021558 | 54 | 89 | 0.0 | 0.0 | 0.00 | 0.05 | 0.02 | 76 | 1010.6 |
| 20260508020056 | 54 | 86 | 0.0 | 0.0 | 0.00 | 0.05 | 0.02 | 76 | 1010.3 |
| 20260508014555 | 54 | 84 | 0.0 | 3.0 | 0.00 | 0.05 | 0.02 | 77 | 1010.3 |
| 20260508013054 | 54 | 84 | 0.0 | 1.0 | 0.00 | 0.05 | 0.02 | 77 | 1009.8 |
| 20260508011604 | 55 | 32 | 0.0 | 0.0 | 0.02 | 0.05 | 0.02 | 76 | 1009.4 |
| 20260508010053 | 54 | 311 | 0.0 | 6.0 | 0.02 | 0.05 | 0.02 | 75 | 1009.4 |
| 20260508004555 | 53 | 292 | 0.0 | 7.0 | 0.02 | 0.05 | 0.02 | 76 | 1009.8 |
| 20260508003049 | 54 | 348 | 4.0 | 26.0 | 0.02 | 0.05 | 0.02 | 73 | 1010.2 |
| 20260508001533 | 60 | 265 | 0.0 | 0.0 | 0.00 | 0.03 | 0.00 | 60 | 1009.1 |
| 20260508000031 | 60 | 250 | 0.0 | 9.0 | 0.00 | 0.03 | 0.00 | 60 | 1008.4 |
| 20260507234531 | 61 | 198 | 1.0 | 10.0 | 0.00 | 0.03 | 0.00 | 57 | 1008.1 |
| 20260507233033 | 63 | 238 | 0.0 | 2.0 | 0.00 | 0.03 | 0.00 | 47 | 1008.1 |
| 20260507231537 | 62 | 185 | 0.0 | 0.0 | 0.00 | 0.03 | 0.00 | 49 | 1008.1 |
| 20260507230024 | 62 | 304 | 0.0 | 0.0 | 0.00 | 0.03 | 0.00 | 55 | 1008.2 |
| 20260507224523 | 60 | 317 | 0.0 | 6.0 | 0.00 | 0.03 | 0.00 | 57 | 1008.5 |
| 20260507223020 | 60 | 296 | 0.0 | 3.0 | 0.00 | 0.03 | 0.00 | 57 | 1008.8 |
| 20260507221513 | 60 | 306 | 0.0 | 3.0 | 0.00 | 0.03 | 0.00 | 59 | 1009.0 |
| 20260507220007 | 60 | 17 | 0.0 | 0.0 | 0.00 | 0.03 | 0.00 | 58 | 1009.1 |
| 20260507214503 | 60 | 44 | 0.0 | 1.0 | 0.00 | 0.03 | 0.00 | 60 | 1008.9 |
| 20260507213003 | 59 | 90 | 0.0 | 1.0 | 0.00 | 0.03 | 0.00 | 64 | 1008.8 |
| 20260507211559 | 59 | 61 | 0.0 | 9.0 | 0.00 | 0.03 | 0.00 | 62 | 1009.0 |
| 20260507210058 | 59 | 38 | 2.0 | 12.0 | 0.00 | 0.03 | 0.03 | 62 | 1009.3 |
| 20260507204602 | 59 | 67 | 0.0 | 13.0 | 0.00 | 0.03 | 0.03 | 64 | 1009.5 |
| 20260507203106 | 60 | 62 | 3.0 | 17.0 | 0.00 | 0.03 | 0.03 | 61 | 1009.2 |
| 20260507201556 | 61 | 74 | 1.0 | 14.0 | 0.00 | 0.03 | 0.03 | 59 | 1009.1 |
| 20260507200048 | 61 | 97 | 1.0 | 8.0 | 0.00 | 0.03 | 0.03 | 57 | 1009.3 |
| 20260507194541 | 60 | 105 | 0.0 | 2.0 | 0.00 | 0.03 | 0.03 | 63 | 1009.6 |
| 20260507193038 | 59 | 59 | 0.0 | 4.0 | 0.00 | 0.03 | 0.03 | 63 | 1009.8 |
| 20260507191536 | 58 | 47 | 0.0 | 5.0 | 0.00 | 0.03 | 0.03 | 66 | 1010.0 |
| 20260507190035 | 57 | 114 | 0.0 | 6.0 | 0.00 | 0.03 | 0.03 | 66 | 1009.9 |
| 20260507184534 | 56 | 114 | 0.0 | 7.0 | 0.00 | 0.03 | 0.03 | 68 | 1010.3 |
| 20260507183039 | 56 | 98 | 0.0 | 7.0 | 0.00 | 0.03 | 0.03 | 69 | 1010.4 |
| 20260507181533 | 56 | 111 | 0.0 | 6.0 | 0.00 | 0.03 | 0.03 | 72 | 1010.5 |
| 20260507180033 | 55 | 109 | 0.0 | 13.0 | 0.00 | 0.03 | 0.03 | 76 | 1010.5 |
| 20260507174526 | 53 | 117 | 0.0 | 7.0 | 0.00 | 0.03 | 0.03 | 80 | 1010.6 |
| 20260507173019 | 52 | 103 | 0.0 | 7.0 | 0.00 | 0.03 | 0.03 | 84 | 1010.7 |
| 20260507171519 | 51 | 78 | 0.0 | 5.0 | 0.00 | 0.03 | 0.03 | 83 | 1010.9 |
| 20260507170021 | 51 | 61 | 0.0 | 9.0 | 0.00 | 0.03 | 0.03 | 82 | 1010.9 |
| 20260507164518 | 51 | 92 | 0.0 | 0.0 | 0.00 | 0.03 | 0.03 | 81 | 1011.2 |
| 20260507163017 | 50 | 51 | 0.0 | 6.0 | 0.00 | 0.03 | 0.03 | 82 | 1011.2 |
| 20260507161532 | 51 | 74 | 0.0 | 7.0 | 0.00 | 0.03 | 0.03 | 80 | 1011.2 |
| 20260507160101 | 51 | 177 | 0.0 | 5.0 | 0.00 | 0.03 | 0.03 | 79 | 1010.9 |
| 20260507154559 | 51 | 142 | 0.0 | 6.0 | 0.00 | 0.03 | 0.03 | 78 | 1011.2 |
| 20260507153047 | 50 | 176 | 1.0 | 4.0 | 0.00 | 0.03 | 0.03 | 82 | 1011.2 |
| 20260507151543 | 49 | 134 | 0.0 | 0.0 | 0.00 | 0.03 | 0.03 | 87 | 1011.1 |
| 20260507150028 | 48 | 107 | 0.0 | 2.0 | 0.00 | 0.03 | 0.03 | 89 | 1011.4 |